GSAT0206 (GALILEO 10)

Last updated on Tue Nov 19 2024 00:02:30 GMT+0000 (Coordinated Universal Time)

1 40890U 15045B 24322.84442737 -.00000006 00000+0 00000+0 0 9993 2 40890 55.1507 237.5219 0003217 19.0948 340.9603 1.70472872 57217
UTC large
Height (km)
Speed (km/s)
/
Latitude / Longitude
Inclination (degrees)
Orbital Period (minutes)
Azimuth
Elevation
Range (km)
Doppler Factor

Next 0 passes for location: London (51.5072 / 0.1276)

Sorry there are no passes over London.